Location: Unspecified
(0.0000°N, 0.0000°E)
Time: 04:54:23
(UTC+00:00)

AAUSAT CUBESAT 2 - Pass Details

Date: 18 July 2020
Orbit: 574 x 589 km, 97.5° (Epoch: 13 August)

Event Time Altitude Azimuth Distance (km) Brightness Sun altitude
Rises 18:29:23 0° 197° (SSW) 2,784 ? -5.4°
Reaches altitude 10° 18:32:09 10° 217° (SW) 1,885 ? -6.0°
Maximum altitude 18:34:49 17° 258° (WSW) 1,485 ? -6.7°
Drops below altitude 10° 18:37:29 10° 300° (WNW) 1,884 ? -7.3°
Sets 18:40:16 0° 320° (NW) 2,782 ? -7.9°
